TimeEST,TemperatureF,Dew PointF,Humidity,Sea Level PressureIn,VisibilityMPH,Wind Direction,Wind SpeedMPH,Gust SpeedMPH,PrecipitationIn,Events,Conditions,WindDirDegrees,DateUTC
12:15 AM,60.8,59.0,94,30.07,7.0,Calm,Calm,-,N/A,,Unknown,0,2012-12-12 05:15:00
12:35 AM,60.8,59.0,94,30.08,7.0,NW,3.5,-,N/A,,Unknown,310,2012-12-12 05:35:00
12:55 AM,60.8,57.2,88,30.08,10.0,NNW,3.5,-,N/A,,Unknown,330,2012-12-12 05:55:00
1:15 AM,60.8,55.4,82,30.08,7.0,North,4.6,-,N/A,,Unknown,350,2012-12-12 06:15:00
1:35 AM,59.0,55.4,88,30.08,10.0,Calm,Calm,-,N/A,,Unknown,0,2012-12-12 06:35:00
1:55 AM,59.0,55.4,88,30.08,10.0,North,3.5,-,N/A,,Unknown,350,2012-12-12 06:55:00
2:15 AM,59.0,55.4,88,30.09,10.0,NNW,3.5,-,N/A,,Unknown,340,2012-12-12 07:15:00
2:55 AM,59.0,55.4,88,30.08,10.0,North,3.5,-,N/A,,Unknown,350,2012-12-12 07:55:00
3:15 AM,59.0,53.6,82,30.09,10.0,North,4.6,-,N/A,,Unknown,360,2012-12-12 08:15:00
3:35 AM,57.2,51.8,82,30.10,10.0,North,8.1,-,N/A,,Unknown,350,2012-12-12 08:35:00
3:55 AM,57.2,51.8,82,30.10,10.0,North,5.8,-,N/A,,Unknown,10,2012-12-12 08:55:00
4:15 AM,57.2,51.8,82,30.11,10.0,North,5.8,-,N/A,,Unknown,350,2012-12-12 09:15:00
4:55 AM,55.4,51.8,88,30.10,7.0,NNE,5.8,-,N/A,,Unknown,20,2012-12-12 09:55:00
5:15 AM,53.6,51.8,94,30.10,10.0,NNE,6.9,-,N/A,,Unknown,30,2012-12-12 10:15:00
5:35 AM,53.6,50.0,88,30.11,10.0,North,6.9,-,N/A,,Unknown,350,2012-12-12 10:35:00
5:55 AM,53.6,50.0,88,30.11,10.0,North,5.8,-,N/A,,Unknown,10,2012-12-12 10:55:00
6:15 AM,53.6,50.0,88,30.11,7.0,NE,5.8,-,N/A,,Unknown,40,2012-12-12 11:15:00
6:55 AM,53.6,50.0,88,30.12,7.0,NE,5.8,-,N/A,,Unknown,40,2012-12-12 11:55:00
7:15 AM,53.6,48.2,82,30.13,10.0,North,5.8,-,N/A,,Unknown,10,2012-12-12 12:15:00
7:35 AM,53.6,50.0,88,30.12,7.0,North,8.1,-,N/A,,Unknown,10,2012-12-12 12:35:00
7:55 AM,53.6,50.0,88,30.14,10.0,North,6.9,-,N/A,,Unknown,10,2012-12-12 12:55:00
8:15 AM,53.6,50.0,88,30.16,5.0,NNE,4.6,-,N/A,,Mist,20,2012-12-12 13:15:00
8:35 AM,53.6,50.0,88,30.14,7.0,NNE,6.9,-,N/A,,Unknown,20,2012-12-12 13:35:00
8:55 AM,53.6,50.0,88,30.16,7.0,NNE,5.8,-,0.01,Rain,Light Rain,30,2012-12-12 13:55:00
9:15 AM,53.6,50.0,88,30.17,7.0,NNE,6.9,-,0.01,Rain,Rain,30,2012-12-12 14:15:00
9:35 AM,53.6,51.8,94,30.17,5.0,NNE,3.5,-,0.01,Rain,Light Rain,20,2012-12-12 14:35:00
9:55 AM,53.6,51.8,94,30.19,4.0,NNE,4.6,-,0.01,Rain,Light Rain,20,2012-12-12 14:55:00
10:15 AM,53.6,51.8,94,30.16,3.0,NE,8.1,-,N/A,,Mist,50,2012-12-12 15:15:00
10:35 AM,53.6,51.8,94,30.16,5.0,NE,8.1,-,N/A,Rain,Light Rain,50,2012-12-12 15:35:00
10:55 AM,53.6,51.8,94,30.16,5.0,NE,9.2,-,N/A,,Mist,40,2012-12-12 15:55:00
11:15 AM,53.6,51.8,94,30.17,7.0,NNE,6.9,-,N/A,,Unknown,30,2012-12-12 16:15:00
11:35 AM,53.6,51.8,94,30.17,4.0,NNE,6.9,-,N/A,,Mist,20,2012-12-12 16:35:00
11:55 AM,53.6,50.0,88,30.17,4.0,North,8.1,-,N/A,,Mist,10,2012-12-12 16:55:00
12:15 PM,53.6,50.0,88,30.16,7.0,NNE,9.2,-,N/A,,Unknown,30,2012-12-12 17:15:00
12:35 PM,51.8,50.0,94,30.14,4.0,NNE,9.2,-,N/A,,Mist,20,2012-12-12 17:35:00
12:55 PM,51.8,50.0,94,30.14,5.0,North,6.9,-,N/A,,Mist,10,2012-12-12 17:55:00
1:15 PM,51.8,50.0,94,30.15,5.0,NNE,5.8,-,N/A,,Mist,20,2012-12-12 18:15:00
1:35 PM,51.8,48.2,88,30.16,5.0,NNE,9.2,-,N/A,,Mist,20,2012-12-12 18:35:00
1:55 PM,51.8,48.2,88,30.16,5.0,North,5.8,-,N/A,,Mist,350,2012-12-12 18:55:00
2:15 PM,51.8,48.2,88,30.16,4.0,NNE,5.8,16.1,N/A,,Mist,20,2012-12-12 19:15:00
2:35 PM,50.0,48.2,94,30.17,5.0,NNE,9.2,-,0.01,Rain,Light Rain,20,2012-12-12 19:35:00
3:15 PM,50.0,48.2,94,30.16,7.0,NNE,9.2,19.6,0.02,Rain,Light Rain,20,2012-12-12 20:15:00
3:35 PM,50.0,48.2,94,30.16,10.0,North,9.2,17.3,0.02,Rain,Light Rain,10,2012-12-12 20:35:00
3:55 PM,50.0,46.4,87,30.17,7.0,NE,9.2,-,0.02,,Unknown,40,2012-12-12 20:55:00
4:15 PM,50.0,46.4,87,30.18,5.0,NE,6.9,-,N/A,,Mist,40,2012-12-12 21:15:00
4:35 PM,50.0,46.4,87,30.18,7.0,NNE,8.1,-,N/A,Rain,Rain,30,2012-12-12 21:35:00
4:55 PM,50.0,46.4,87,30.17,10.0,NE,9.2,-,0.01,Rain,Rain,40,2012-12-12 21:55:00
5:15 PM,48.2,46.4,93,30.19,10.0,NNE,6.9,-,N/A,Rain,Light Rain,20,2012-12-12 22:15:00
5:35 PM,48.2,46.4,93,30.22,7.0,NE,6.9,-,0.03,Rain,Rain,40,2012-12-12 22:35:00
5:55 PM,48.2,46.4,93,30.21,7.0,North,8.1,-,0.07,Rain,Light Rain,10,2012-12-12 22:55:00
6:15 PM,48.2,46.4,93,30.19,10.0,NNE,9.2,17.3,0.01,Rain,Light Rain,30,2012-12-12 23:15:00
6:35 PM,48.2,44.6,87,30.18,10.0,NE,13.8,19.6,0.02,Rain,Light Rain,40,2012-12-12 23:35:00
6:55 PM,48.2,44.6,87,30.18,7.0,NNE,11.5,-,0.02,,Unknown,30,2012-12-12 23:55:00
7:15 PM,48.2,44.6,87,30.18,10.0,NE,10.4,19.6,N/A,Rain,Light Rain,40,2012-12-13 00:15:00
7:35 PM,48.2,44.6,87,30.18,10.0,NE,9.2,17.3,N/A,,Unknown,50,2012-12-13 00:35:00
7:55 PM,46.4,44.6,93,30.18,10.0,NE,12.7,16.1,0.01,Rain,Light Rain,50,2012-12-13 00:55:00
8:15 PM,46.4,44.6,93,30.20,10.0,NNE,5.8,-,0.01,Rain,Rain,20,2012-12-13 01:15:00
8:55 PM,46.4,44.6,93,30.21,7.0,NE,9.2,-,0.09,Rain,Light Rain,40,2012-12-13 01:55:00
9:15 PM,46.4,44.6,93,30.20,10.0,NE,12.7,16.1,0.03,Rain,Light Rain,50,2012-12-13 02:15:00
9:35 PM,46.4,42.8,87,30.18,10.0,NE,12.7,-,0.04,Rain,Light Rain,40,2012-12-13 02:35:00
9:55 PM,46.4,42.8,87,30.16,10.0,NE,13.8,18.4,0.05,Rain,Light Rain,50,2012-12-13 02:55:00
10:15 PM,46.4,42.8,87,30.18,10.0,ENE,6.9,19.6,0.01,Rain,Light Rain,70,2012-12-13 03:15:00
10:35 PM,46.4,42.8,87,30.18,10.0,ENE,10.4,-,0.03,Rain,Light Rain,60,2012-12-13 03:35:00
10:55 PM,44.6,42.8,93,30.13,10.0,ENE,12.7,-,0.07,Rain,Light Rain,70,2012-12-13 03:55:00
11:15 PM,44.6,42.8,93,30.19,10.0,NNE,5.8,-,0.01,Rain,Light Rain,30,2012-12-13 04:15:00
11:35 PM,44.6,42.8,93,30.21,10.0,NE,4.6,-,0.02,Rain,Rain,50,2012-12-13 04:35:00
11:55 PM,44.6,42.8,93,30.18,10.0,North,5.8,-,0.02,Rain,Light Rain,10,2012-12-13 04:55:00